Portada
METAR-TAF:

METAR-TAF

Aeropuertos :

Carroll, Iowa, Estados Unidos

latitud: 42-03N, longitud: 094-47W, altitud: 375 m

Observación

El informe se hizo hace 23 minutos, a las 12:55 UTC
Viento 4 kt del sur-suroeste
Temperatura -11°C
Humedad 85%
Presión 1016 hPa
Visibilidad: 16.1 km
Cielo despejado

METAR: KCIN 291255Z AUTO 20004KT 10SM CLR M11/M13 A2999 RMK AO2

Hora: 07:18 (13:18 UTC)


TAF: falta

Observaciones y pronósticos meteorológicos de más de 4000 aeropuertos (mensajes METAR y TAF).

Los puntos amarillos y rojos representan las estaciones disponibles.

Ponga el ratón en el punto deseado para ver el nombre de la estación.

Haga clic para ver las observaciones y los pronósticos meteorológicos.

Para cambiar el mapa : haga clic en los botones verdes con una cruz de color negro para hacer un zoom, en el botón verde con un guión para alejar o en las flechas verdes para mapas adyacentes.


METAR-TAF: